When you browse on this site, cookies collect data to enhance your experience and personalize the content and advertising you see.
Visit our Privacy Policy to learn more. By continuing to use the site, you agree to this use of cookies and data.
  • In United Kingdom
  • List of Countries
  • For 7 days
  • Water Temperature
  • Weather Map
  • Weather Widgets
  • user-avatar
    Login

    Hourly Weather Popondetta

    Today, 15 October, Tuesday

    Time Temperature Precipitation Wind Pressure Humidity
    00:00 +24°C° 0 mm 1 mps 749 mmHg 92%
    01:00 +24°C° 0 mm 1 mps 749 mmHg 91%
    02:00 +24°C° 0 mm 1 mps 749 mmHg 91%
    03:00 +24°C° 0 mm 1 mps 749 mmHg 91%
    04:00 +24°C° 0 mm 1 mps 749 mmHg 89%
    05:00 +24°C° 0 mm 1 mps 749 mmHg 86%
    06:00 +25°C° 0 mm 1 mps 749 mmHg 82%
    07:00 +26°C° 0 mm 1 mps 750 mmHg 79%
    08:00 +28°C° 0 mm 1 mps 750 mmHg 71%
    09:00 +30°C° 0 mm 1 mps 750 mmHg 62%
    10:00 +34°C° 0 mm 2 mps 750 mmHg 54%
    11:00 +34°C° 0 mm 2 mps 749 mmHg 54%
    12:00 +34°C° 0 mm 2 mps 748 mmHg 54%
    13:00 +34°C° 0 mm 3 mps 748 mmHg 55%
    14:00 +33°C° 0.6 mm 3 mps 748 mmHg 62%
    15:00 +31°C° 0.6 mm 2 mps 747 mmHg 69%
    16:00 +30°C° 0.6 mm 2 mps 747 mmHg 76%
    17:00 +28°C° 0.5 mm 2 mps 748 mmHg 82%
    18:00 +27°C° 0.5 mm 1 mps 748 mmHg 89%
    19:00 +25°C° 0.5 mm 1 mps 748 mmHg 95%
    20:00 +25°C° 0 mm 1 mps 749 mmHg 95%
    21:00 +25°C° 0 mm 1 mps 749 mmHg 95%
    22:00 +24°C° 0 mm 1 mps 749 mmHg 95%
    23:00 +24°C° 0 mm 1 mps 749 mmHg 94%

    Tomorrow, 16 October, Wednesday

    Time Temperature Precipitation Wind Pressure Humidity
    00:00 +24°C° 0 mm 1 mps 749 mmHg 94%
    01:00 +23°C° 0 mm 1 mps 748 mmHg 93%
    02:00 +23°C° 0 mm 1 mps 748 mmHg 93%
    03:00 +23°C° 0 mm 1 mps 748 mmHg 93%
    04:00 +23°C° 0 mm 1 mps 748 mmHg 92%
    05:00 +24°C° 0 mm 1 mps 749 mmHg 90%
    06:00 +25°C° 0 mm 1 mps 749 mmHg 89%
    07:00 +25°C° 0 mm 1 mps 750 mmHg 87%
    08:00 +28°C° 0 mm 1 mps 750 mmHg 77%
    09:00 +30°C° 0 mm 1 mps 750 mmHg 68%
    10:00 +34°C° 0 mm 2 mps 750 mmHg 59%
    11:00 +34°C° 0 mm 2 mps 749 mmHg 57%
    12:00 +34°C° 0 mm 2 mps 748 mmHg 56%
    13:00 +35°C° 0 mm 3 mps 748 mmHg 55%
    14:00 +34°C° 0.4 mm 3 mps 747 mmHg 62%
    15:00 +31°C° 0.4 mm 3 mps 747 mmHg 69%
    16:00 +30°C° 0.4 mm 3 mps 747 mmHg 76%
    17:00 +28°C° 0.4 mm 2 mps 748 mmHg 81%
    18:00 +27°C° 0.4 mm 1 mps 748 mmHg 87%
    19:00 +25°C° 0.4 mm 1 mps 749 mmHg 92%
    20:00 +25°C° 0.1 mm 1 mps 749 mmHg 92%
    21:00 +24°C° 0.1 mm 1 mps 750 mmHg 93%
    22:00 +24°C° 0.1 mm 1 mps 750 mmHg 94%
    23:00 +24°C° 0 mm 1 mps 750 mmHg 93%

    Day after tomorrow, 17 October, Thursday

    Time Temperature Precipitation Wind Pressure Humidity
    00:00 +23°C° 0 mm 1 mps 749 mmHg 93%
    01:00 +23°C° 0 mm 1 mps 749 mmHg 92%
    02:00 +23°C° 0 mm 1 mps 749 mmHg 91%
    03:00 +22°C° 0 mm 1 mps 749 mmHg 90%
    04:00 +22°C° 0 mm 1 mps 749 mmHg 89%
    05:00 +22°C° 0 mm 1 mps 749 mmHg 84%
    06:00 +23°C° 0 mm 1 mps 750 mmHg 78%
    07:00 +23°C° 0 mm 1 mps 750 mmHg 73%
    08:00 +26°C° 0 mm 1 mps 750 mmHg 62%
    09:00 +30°C° 0 mm 1 mps 750 mmHg 52%
    10:00 +33°C° 0 mm 1 mps 751 mmHg 42%
    11:00 +34°C° 0 mm 1 mps 750 mmHg 41%
    12:00 +35°C° 0 mm 2 mps 749 mmHg 40%
    13:00 +36°C° 0 mm 2 mps 748 mmHg 39%
    14:00 +34°C° 0 mm 3 mps 748 mmHg 45%
    15:00 +33°C° 0 mm 3 mps 748 mmHg 52%
    16:00 +31°C° 0 mm 3 mps 748 mmHg 58%
    17:00 +29°C° 0 mm 2 mps 748 mmHg 68%
    18:00 +26°C° 0 mm 1 mps 749 mmHg 79%
    19:00 +24°C° 0 mm 1 mps 749 mmHg 90%
    20:00 +24°C° 0 mm 1 mps 750 mmHg 90%
    21:00 +24°C° 0 mm 1 mps 750 mmHg 90%
    22:00 +24°C° 0 mm 1 mps 750 mmHg 90%
    23:00 +23°C° 0 mm 1 mps 750 mmHg 90%

    18 October, Friday

    Time Temperature Precipitation Wind Pressure Humidity
    00:00 +23°C° 0 mm 1 mps 750 mmHg 91%
    01:00 +23°C° 0 mm 1 mps 749 mmHg 91%
    02:00 +23°C° 0 mm 1 mps 749 mmHg 91%
    03:00 +23°C° 0 mm 1 mps 749 mmHg 91%
    04:00 +22°C° 0 mm 1 mps 749 mmHg 91%
    05:00 +23°C° 0 mm 1 mps 749 mmHg 87%
    06:00 +24°C° 0 mm 1 mps 750 mmHg 84%
    07:00 +25°C° 0 mm 1 mps 750 mmHg 81%
    08:00 +27°C° 0 mm 1 mps 750 mmHg 71%
    09:00 +30°C° 0 mm 1 mps 750 mmHg 62%
    10:00 +32°C° 0 mm 1 mps 751 mmHg 52%
    11:00 +34°C° 0 mm 2 mps 750 mmHg 49%
    12:00 +34°C° 0 mm 2 mps 749 mmHg 45%
    13:00 +35°C° 0 mm 3 mps 748 mmHg 42%
    14:00 +34°C° 0 mm 2 mps 748 mmHg 46%
    15:00 +32°C° 0 mm 2 mps 748 mmHg 51%
    16:00 +31°C° 0 mm 2 mps 748 mmHg 55%
    17:00 +29°C° 0 mm 2 mps 748 mmHg 65%
    18:00 +26°C° 0 mm 1 mps 749 mmHg 76%
    19:00 +22°C° 0 mm 0 mps 749 mmHg 86%
    20:00 +24°C° 0 mm 1 mps 749 mmHg 86%
    21:00 +24°C° 0 mm 1 mps 750 mmHg 86%
    22:00 +24°C° 0 mm 1 mps 750 mmHg 86%
    23:00 +23°C° 0 mm 1 mps 750 mmHg 86%

    19 October, Saturday

    Time Temperature Precipitation Wind Pressure Humidity
    00:00 +23°C° 0 mm 1 mps 750 mmHg 86%
    01:00 +23°C° 0 mm 1 mps 749 mmHg 86%
    02:00 +23°C° 0 mm 1 mps 749 mmHg 84%
    03:00 +22°C° 0 mm 1 mps 749 mmHg 83%
    04:00 +22°C° 0 mm 1 mps 748 mmHg 82%
    05:00 +23°C° 0 mm 1 mps 749 mmHg 78%
    06:00 +24°C° 0 mm 1 mps 749 mmHg 74%
    07:00 +25°C° 0 mm 1 mps 750 mmHg 70%
    08:00 +28°C° 0 mm 1 mps 750 mmHg 62%
    09:00 +30°C° 0 mm 1 mps 750 mmHg 54%
    10:00 +33°C° 0 mm 1 mps 750 mmHg 46%
    11:00 +35°C° 0 mm 2 mps 749 mmHg 44%
    12:00 +35°C° 0 mm 2 mps 749 mmHg 43%
    13:00 +36°C° 0 mm 2 mps 748 mmHg 42%
    14:00 +35°C° 0 mm 2 mps 748 mmHg 47%
    15:00 +34°C° 0 mm 2 mps 748 mmHg 51%
    16:00 +33°C° 0 mm 3 mps 748 mmHg 56%
    17:00 +30°C° 0.1 mm 2 mps 748 mmHg 68%
    18:00 +27°C° 0.1 mm 1 mps 749 mmHg 79%
    19:00 +25°C° 0.1 mm 1 mps 749 mmHg 90%
    20:00 +25°C° 0 mm 1 mps 749 mmHg 90%
    21:00 +25°C° 0 mm 1 mps 750 mmHg 90%
    22:00 +25°C° 0 mm 1 mps 750 mmHg 90%
    23:00 +25°C° 0 mm 1 mps 750 mmHg 90%

    20 October, Sunday

    Time Temperature Precipitation Wind Pressure Humidity
    00:00 +24°C° 0 mm 1 mps 749 mmHg 89%
    01:00 +24°C° 0 mm 1 mps 749 mmHg 89%
    02:00 +24°C° 0 mm 1 mps 748 mmHg 88%
    03:00 +24°C° 0 mm 1 mps 748 mmHg 87%
    04:00 +24°C° 0 mm 1 mps 748 mmHg 86%
    05:00 +25°C° 0 mm 1 mps 748 mmHg 82%
    06:00 +26°C° 0 mm 1 mps 749 mmHg 79%
    07:00 +26°C° 0 mm 1 mps 749 mmHg 75%
    08:00 +29°C° 0 mm 1 mps 749 mmHg 65%
    09:00 +32°C° 0 mm 1 mps 749 mmHg 56%
    10:00 +35°C° 0 mm 1 mps 749 mmHg 46%
    11:00 +36°C° 0 mm 2 mps 749 mmHg 47%
    12:00 +36°C° 0 mm 2 mps 748 mmHg 47%
    13:00 +36°C° 0 mm 3 mps 747 mmHg 48%
    14:00 +35°C° 0.4 mm 3 mps 747 mmHg 56%
    15:00 +33°C° 0.4 mm 3 mps 747 mmHg 65%
    16:00 +31°C° 0.4 mm 3 mps 747 mmHg 74%
    17:00 +29°C° 1.4 mm 3 mps 747 mmHg 81%
    18:00 +27°C° 1.4 mm 2 mps 748 mmHg 89%
    19:00 +26°C° 1.4 mm 2 mps 748 mmHg 96%
    20:00 +26°C° 1.1 mm 2 mps 749 mmHg 96%
    21:00 +25°C° 1.1 mm 1 mps 749 mmHg 97%
    22:00 +25°C° 1.1 mm 1 mps 749 mmHg 97%
    23:00 +25°C° 0.4 mm 1 mps 749 mmHg 97%
    Show more